Location: ?????
(32.7281°N, 34.9563°E)
Time: 02:43:48
(UTC+00:00)

CZ-4B R/B - Visible Passes

Search period start: 04 March 2021 00:00
Search period end: 14 March 2021 00:00
Orbit: 387 x 458 km, 97.6° (Epoch: 03 March)

Date Brightness Start Highest point End Pass type
(mag) Time Alt. Az. Time Alt. Az. Time Alt. Az.
04 Mar 2.0 03:33:29 10° SSW 03:36:20 31° W 03:39:09 10° NW visible
04 Mar 4.3 16:27:40 10° NNW 16:29:55 19° WNW 16:32:10 10° WSW visible
05 Mar 2.5 02:50:00 10° SSE 02:53:01 43° ENE 02:55:59 10° N visible
06 Mar 4.4 16:33:16 10° NNW 16:35:17 16° WNW 16:37:18 10° WSW visible
07 Mar 2.0 02:55:19 10° SSE 02:58:23 52° ENE 03:01:24 10° N visible
08 Mar 4.8 02:14:12 10° E 02:15:12 11° ENE 02:16:11 10° NE visible
08 Mar 4.6 16:38:52 10° NW 16:40:35 14° WNW 16:42:19 10° WSW visible
09 Mar 1.6 03:00:37 10° SSE 03:03:41 64° ENE 03:06:44 10° N visible
10 Mar 4.6 02:18:58 10° E 02:20:28 13° ENE 02:21:57 10° NE visible
10 Mar 4.8 16:44:31 10° NW 16:45:50 12° WNW 16:47:11 10° W visible
11 Mar 1.3 03:05:53 10° SSE 03:08:57 79° ENE 03:12:00 10° N visible
12 Mar 4.5 02:23:51 10° ESE 02:25:41 15° ENE 02:27:31 10° NE visible
12 Mar 5.0 16:50:20 10° WNW 16:51:03 11° WNW 16:51:46 10° W visible
13 Mar 1.0 03:11:07 10° S 03:14:11 85° W 03:17:13 10° NNW visible
